Location: Gälforsberget
(66.6500°N, 22.4167°E)
Time: 10:11:46
(UTC+00:00)

COSMOS 2428 - Pass Details

Date: 11 April 2026
Orbit: 844 x 855 km, 70.9° (Epoch: 19 May)

Event Time Altitude Azimuth Distance (km) Brightness Sun altitude
Rises 19:35:44 0° 191° (S) 3,421 5.5 -8.4°
Reaches altitude 10° 19:38:19 10° 183° (S) 2,489 4.7 -8.6°
Maximum altitude 19:43:31 37° 118° (ESE) 1,303 3.2 -8.9°
Drops below altitude 10° 19:48:45 10° 53° (NE) 2,500 5.1 -9.3°
Sets 19:51:21 0° 46° (NE) 3,438 5.9 -9.4°
